| time (UTC) | temp F | wind direction | speed MPH | gust MPH | rain 1hr in | rain 24hr in | rain mn in | humidity % | barometer mb |
| 20260508060506 | 43 | 168 | 0.0 | 0.0 | 0.00 | 0.18 | 0.00 | 96 | 1021.6 |
| 20260508060005 | 43 | 168 | 0.0 | 0.0 | 0.00 | 0.18 | 0.00 | 96 | 1021.6 |
| 20260508055505 | 43 | 309 | 0.0 | 0.0 | 0.00 | 0.18 | 0.00 | 96 | 1021.5 |
| 20260508055004 | 43 | 168 | 0.0 | 0.0 | 0.00 | 0.18 | 0.00 | 96 | 1021.5 |
| 20260508054504 | 43 | 168 | 0.0 | 0.0 | 0.00 | 0.18 | 0.00 | 96 | 1021.5 |
| 20260508054002 | 42 | 309 | 0.0 | 0.0 | 0.00 | 0.18 | 0.00 | 96 | 1021.5 |
| 20260508053502 | 42 | 168 | 0.0 | 0.0 | 0.00 | 0.18 | 0.00 | 96 | 1021.5 |
| 20260508053007 | 42 | 309 | 0.0 | 0.0 | 0.00 | 0.18 | 0.00 | 96 | 1021.5 |
| 20260508052502 | 42 | 168 | 0.0 | 0.0 | 0.00 | 0.18 | 0.00 | 96 | 1021.5 |
| 20260508052002 | 42 | 168 | 0.0 | 0.0 | 0.00 | 0.18 | 0.00 | 96 | 1021.5 |
| 20260508051501 | 42 | 168 | 0.0 | 0.0 | 0.00 | 0.18 | 0.00 | 96 | 1021.5 |
| 20260508051001 | 42 | 309 | 0.0 | 0.0 | 0.00 | 0.18 | 0.00 | 96 | 1021.4 |
| 20260508050501 | 42 | 309 | 0.0 | 0.0 | 0.00 | 0.18 | 0.00 | 96 | 1021.4 |
| 20260508050003 | 42 | 309 | 0.0 | 0.0 | 0.00 | 0.18 | 0.00 | 96 | 1021.4 |
| 20260508045600 | 42 | 309 | 0.0 | 0.0 | 0.00 | 0.18 | 0.00 | 96 | 1021.3 |
| 20260508045103 | 42 | 309 | 0.0 | 0.0 | 0.00 | 0.18 | 0.00 | 96 | 1021.4 |
| 20260508044603 | 42 | 168 | 0.0 | 0.0 | 0.00 | 0.18 | 0.00 | 96 | 1021.4 |
| 20260508044102 | 42 | 168 | 0.0 | 0.0 | 0.00 | 0.18 | 0.00 | 96 | 1021.4 |
| 20260508043558 | 42 | 309 | 0.0 | 0.0 | 0.00 | 0.18 | 0.00 | 96 | 1021.4 |
| 20260508043103 | 42 | 168 | 0.0 | 0.0 | 0.00 | 0.18 | 0.00 | 96 | 1021.4 |
| 20260508042557 | 42 | 168 | 0.0 | 0.0 | 0.00 | 0.18 | 0.00 | 96 | 1021.4 |
| 20260508042101 | 42 | 168 | 0.0 | 0.0 | 0.00 | 0.18 | 0.00 | 96 | 1021.4 |
| 20260508041558 | 42 | 168 | 0.0 | 0.0 | 0.00 | 0.18 | 0.00 | 96 | 1021.3 |
| 20260508041054 | 42 | 168 | 0.0 | 0.0 | 0.00 | 0.18 | 0.00 | 96 | 1021.3 |
| 20260508040556 | 42 | 168 | 0.0 | 0.0 | 0.00 | 0.18 | 0.00 | 95 | 1021.2 |
| 20260508040053 | 42 | 168 | 0.0 | 0.0 | 0.00 | 0.18 | 0.00 | 95 | 1021.2 |
| 20260508035553 | 42 | 168 | 0.0 | 0.0 | 0.00 | 0.18 | 0.00 | 96 | 1021.1 |
| 20260508035053 | 42 | 168 | 0.0 | 0.0 | 0.00 | 0.18 | 0.00 | 95 | 1021.0 |
| 20260508034557 | 42 | 309 | 0.0 | 0.0 | 0.00 | 0.18 | 0.00 | 95 | 1021.0 |
| 20260508034053 | 42 | 309 | 0.0 | 0.0 | 0.00 | 0.18 | 0.00 | 95 | 1021.1 |
| 20260508033552 | 42 | 168 | 0.0 | 0.0 | 0.00 | 0.18 | 0.00 | 95 | 1021.0 |
| 20260508032551 | 42 | 168 | 0.0 | 0.0 | 0.00 | 0.18 | 0.00 | 95 | 1021.0 |
| 20260508032051 | 42 | 168 | 0.0 | 0.0 | 0.00 | 0.18 | 0.00 | 95 | 1020.9 |
| 20260508031550 | 43 | 168 | 0.0 | 0.0 | 0.00 | 0.18 | 0.00 | 95 | 1020.9 |
| 20260508031051 | 43 | 168 | 0.0 | 2.0 | 0.00 | 0.18 | 0.00 | 95 | 1020.9 |
| 20260508030549 | 43 | 168 | 0.0 | 2.0 | 0.00 | 0.18 | 0.00 | 95 | 1020.8 |
| 20260508030048 | 43 | 168 | 0.0 | 1.0 | 0.00 | 0.18 | 0.00 | 95 | 1020.7 |
| 20260508025549 | 43 | 168 | 0.0 | 0.0 | 0.00 | 0.18 | 0.00 | 95 | 1020.7 |
| 20260508025048 | 43 | 168 | 0.0 | 0.0 | 0.00 | 0.18 | 0.00 | 95 | 1020.7 |
| 20260508024550 | 43 | 168 | 0.0 | 0.0 | 0.00 | 0.18 | 0.00 | 95 | 1020.7 |
| 20260508024051 | 43 | 168 | 0.0 | 0.0 | 0.00 | 0.18 | 0.00 | 95 | 1020.7 |
| 20260508023546 | 43 | 168 | 0.0 | 0.0 | 0.00 | 0.18 | 0.00 | 95 | 1020.7 |
| 20260508023050 | 43 | 169 | 0.0 | 0.0 | 0.00 | 0.18 | 0.00 | 95 | 1020.7 |
| 20260508022547 | 43 | 168 | 0.0 | 2.0 | 0.00 | 0.18 | 0.00 | 95 | 1020.7 |
| 20260508022048 | 43 | 168 | 0.0 | 3.0 | 0.00 | 0.18 | 0.00 | 94 | 1020.7 |
| 20260508021547 | 43 | 168 | 0.0 | 3.0 | 0.00 | 0.18 | 0.00 | 94 | 1020.7 |
| 20260508021044 | 44 | 168 | 0.0 | 4.0 | 0.00 | 0.18 | 0.00 | 94 | 1020.7 |
| 20260508020544 | 44 | 168 | 1.0 | 4.0 | 0.00 | 0.18 | 0.00 | 94 | 1020.8 |
| 20260508020044 | 44 | 168 | 1.0 | 2.0 | 0.00 | 0.18 | 0.00 | 94 | 1020.8 |
| 20260508015543 | 44 | 168 | 1.0 | 2.0 | 0.00 | 0.18 | 0.00 | 94 | 1020.8 |
| 20260508015043 | 44 | 168 | 1.0 | 3.0 | 0.00 | 0.18 | 0.00 | 94 | 1020.9 |
| 20260508014549 | 44 | 168 | 0.0 | 3.0 | 0.00 | 0.18 | 0.00 | 94 | 1021.0 |
| 20260508014046 | 44 | 174 | 0.0 | 3.0 | 0.00 | 0.18 | 0.00 | 94 | 1021.0 |
| 20260508013540 | 44 | 171 | 0.0 | 3.0 | 0.00 | 0.18 | 0.00 | 94 | 1021.0 |
| 20260508013044 | 44 | 170 | 0.0 | 4.0 | 0.00 | 0.18 | 0.00 | 94 | 1021.1 |
| 20260508012540 | 44 | 166 | 1.0 | 4.0 | 0.00 | 0.18 | 0.00 | 94 | 1021.1 |
| 20260508012040 | 44 | 186 | 0.0 | 0.0 | 0.00 | 0.18 | 0.00 | 94 | 1021.1 |
| 20260508011543 | 44 | 187 | 0.0 | 0.0 | 0.00 | 0.18 | 0.00 | 93 | 1021.1 |
| 20260508011039 | 44 | 187 | 0.0 | 0.0 | 0.00 | 0.18 | 0.00 | 93 | 1021.0 |
| 20260508010542 | 44 | 309 | 0.0 | 0.0 | 0.00 | 0.18 | 0.00 | 93 | 1021.0 |
| 20260508010037 | 44 | 187 | 0.0 | 0.0 | 0.00 | 0.18 | 0.00 | 93 | 1021.0 |
| 20260508005538 | 44 | 188 | 0.0 | 0.0 | 0.00 | 0.18 | 0.00 | 93 | 1021.0 |
| 20260508005037 | 44 | 188 | 0.0 | 0.0 | 0.00 | 0.18 | 0.00 | 93 | 1021.1 |
| 20260508004536 | 44 | 188 | 0.0 | 0.0 | 0.00 | 0.18 | 0.00 | 93 | 1021.1 |
| 20260508004036 | 45 | 188 | 0.0 | 0.0 | 0.00 | 0.18 | 0.00 | 93 | 1021.1 |
| 20260508003535 | 44 | 188 | 0.0 | 0.0 | 0.00 | 0.18 | 0.00 | 93 | 1021.1 |
| 20260508003054 | 45 | 188 | 0.0 | 0.0 | 0.00 | 0.18 | 0.00 | 93 | 1021.1 |
| 20260508002535 | 44 | 188 | 0.0 | 0.0 | 0.00 | 0.18 | 0.00 | 93 | 1021.0 |
| 20260508002035 | 44 | 188 | 0.0 | 0.0 | 0.00 | 0.18 | 0.00 | 93 | 1021.0 |
| 20260508001533 | 44 | 188 | 0.0 | 0.0 | 0.00 | 0.18 | 0.00 | 92 | 1021.2 |
| 20260508001033 | 44 | 188 | 0.0 | 0.0 | 0.00 | 0.18 | 0.00 | 92 | 1021.2 |
| 20260508000533 | 45 | 188 | 0.0 | 0.0 | 0.00 | 0.18 | 0.00 | 91 | 1021.2 |
| 20260508000031 | 45 | 188 | 0.0 | 0.0 | 0.00 | 0.18 | 0.00 | 91 | 1021.3 |
| 20260507235531 | 45 | 188 | 0.0 | 0.0 | 0.00 | 0.18 | 0.00 | 92 | 1021.3 |
| 20260507235031 | 45 | 309 | 0.0 | 0.0 | 0.00 | 0.18 | 0.00 | 91 | 1021.3 |
| 20260507234531 | 46 | 188 | 0.0 | 3.0 | 0.00 | 0.18 | 0.00 | 92 | 1021.4 |
| 20260507234030 | 45 | 188 | 1.0 | 3.0 | 0.00 | 0.18 | 0.00 | 93 | 1021.4 |
| 20260507233530 | 45 | 167 | 0.0 | 1.0 | 0.00 | 0.18 | 0.00 | 92 | 1021.4 |
| 20260507233034 | 45 | 167 | 0.0 | 0.0 | 0.00 | 0.18 | 0.00 | 92 | 1021.4 |
| 20260507232529 | 45 | 167 | 0.0 | 0.0 | 0.00 | 0.18 | 0.00 | 92 | 1021.4 |
| 20260507232029 | 45 | 166 | 0.0 | 0.0 | 0.00 | 0.18 | 0.00 | 92 | 1021.5 |
| 20260507231531 | 45 | 167 | 0.0 | 0.0 | 0.00 | 0.18 | 0.00 | 91 | 1021.5 |
| 20260507231030 | 45 | 167 | 0.0 | 0.0 | 0.00 | 0.18 | 0.00 | 91 | 1021.5 |
| 20260507230529 | 45 | 167 | 0.0 | 0.0 | 0.00 | 0.18 | 0.00 | 91 | 1021.5 |
| 20260507230028 | 45 | 167 | 0.0 | 3.0 | 0.00 | 0.18 | 0.00 | 91 | 1021.6 |
| 20260507225528 | 45 | 167 | 0.0 | 3.0 | 0.00 | 0.18 | 0.00 | 91 | 1021.6 |
| 20260507225026 | 46 | 260 | 0.0 | 0.0 | 0.00 | 0.18 | 0.00 | 90 | 1021.6 |
| 20260507224526 | 46 | 260 | 0.0 | 0.0 | 0.00 | 0.18 | 0.00 | 90 | 1021.5 |
| 20260507224024 | 46 | 309 | 0.0 | 0.0 | 0.00 | 0.18 | 0.00 | 90 | 1021.5 |
| 20260507223523 | 46 | 258 | 0.0 | 2.0 | 0.00 | 0.18 | 0.00 | 89 | 1021.5 |
| 20260507223022 | 46 | 259 | 1.0 | 2.0 | 0.00 | 0.18 | 0.00 | 89 | 1021.5 |
| 20260507222522 | 46 | 259 | 0.0 | 0.0 | 0.00 | 0.18 | 0.00 | 89 | 1021.5 |
| 20260507222021 | 47 | 258 | 0.0 | 0.0 | 0.00 | 0.18 | 0.00 | 89 | 1021.5 |
| 20260507221525 | 47 | 258 | 0.0 | 0.0 | 0.00 | 0.18 | 0.00 | 88 | 1021.3 |
| 20260507221024 | 47 | 259 | 0.0 | 0.0 | 0.00 | 0.18 | 0.00 | 88 | 1021.4 |
| 20260507220522 | 47 | 260 | 0.0 | 0.0 | 0.00 | 0.18 | 0.00 | 88 | 1021.4 |
| 20260507220017 | 47 | 260 | 0.0 | 0.0 | 0.00 | 0.18 | 0.00 | 88 | 1021.4 |
| 20260507215517 | 47 | 258 | 0.0 | 0.0 | 0.00 | 0.18 | 0.18 | 88 | 1021.4 |
| 20260507215016 | 47 | 258 | 0.0 | 0.0 | 0.00 | 0.18 | 0.18 | 88 | 1021.3 |
| 20260507214516 | 47 | 258 | 0.0 | 0.0 | 0.00 | 0.18 | 0.18 | 88 | 1021.3 |
| 20260507214016 | 47 | 259 | 0.0 | 2.0 | 0.00 | 0.18 | 0.18 | 88 | 1021.3 |
| 20260507213515 | 47 | 259 | 0.0 | 2.0 | 0.00 | 0.18 | 0.18 | 87 | 1021.2 |
| 20260507213014 | 47 | 259 | 0.0 | 0.0 | 0.00 | 0.18 | 0.18 | 87 | 1021.2 |
| 20260507212514 | 47 | 260 | 0.0 | 0.0 | 0.00 | 0.18 | 0.18 | 87 | 1021.1 |
| 20260507212016 | 47 | 260 | 0.0 | 2.0 | 0.00 | 0.18 | 0.18 | 87 | 1021.1 |
| 20260507211515 | 47 | 260 | 0.0 | 3.0 | 0.00 | 0.18 | 0.18 | 87 | 1021.1 |
| 20260507211013 | 47 | 260 | 0.0 | 2.0 | 0.00 | 0.18 | 0.18 | 87 | 1021.1 |
| 20260507210513 | 47 | 218 | 0.0 | 2.0 | 0.00 | 0.18 | 0.18 | 87 | 1021.1 |
| 20260507210013 | 48 | 309 | 0.0 | 0.0 | 0.00 | 0.18 | 0.18 | 87 | 1021.1 |
| 20260507205514 | 48 | 309 | 0.0 | 0.0 | 0.00 | 0.18 | 0.18 | 88 | 1021.2 |
| 20260507205016 | 48 | 309 | 0.0 | 0.0 | 0.00 | 0.18 | 0.18 | 88 | 1021.2 |
| 20260507204513 | 48 | 216 | 0.0 | 0.0 | 0.00 | 0.18 | 0.18 | 88 | 1021.2 |
| 20260507204013 | 48 | 309 | 0.0 | 0.0 | 0.00 | 0.18 | 0.18 | 87 | 1021.2 |
| 20260507203513 | 48 | 309 | 0.0 | 2.0 | 0.00 | 0.18 | 0.18 | 88 | 1021.1 |
| 20260507203015 | 48 | 215 | 0.0 | 2.0 | 0.00 | 0.18 | 0.18 | 87 | 1021.1 |
| 20260507202511 | 48 | 216 | 0.0 | 2.0 | 0.00 | 0.18 | 0.18 | 87 | 1021.1 |
| 20260507202011 | 48 | 309 | 0.0 | 2.0 | 0.00 | 0.18 | 0.18 | 87 | 1021.1 |
| 20260507201511 | 48 | 309 | 1.0 | 2.0 | 0.00 | 0.18 | 0.18 | 88 | 1021.1 |
| 20260507201010 | 48 | 215 | 1.0 | 2.0 | 0.00 | 0.18 | 0.18 | 87 | 1021.0 |
| 20260507200510 | 49 | 309 | 0.0 | 0.0 | 0.00 | 0.18 | 0.18 | 87 | 1021.0 |
| 20260507200010 | 48 | 216 | 0.0 | 0.0 | 0.00 | 0.18 | 0.18 | 86 | 1020.9 |
| 20260507195509 | 48 | 309 | 0.0 | 0.0 | 0.00 | 0.18 | 0.18 | 87 | 1020.9 |
| 20260507195009 | 48 | 309 | 0.0 | 0.0 | 0.00 | 0.18 | 0.18 | 87 | 1020.8 |
| 20260507194508 | 48 | 309 | 0.0 | 2.0 | 0.00 | 0.18 | 0.18 | 87 | 1020.7 |
| 20260507194007 | 48 | 309 | 0.0 | 2.0 | 0.00 | 0.18 | 0.18 | 88 | 1020.7 |
| 20260507193507 | 48 | 309 | 0.0 | 3.0 | 0.00 | 0.18 | 0.18 | 88 | 1020.6 |
| 20260507193006 | 48 | 309 | 0.0 | 0.0 | 0.00 | 0.18 | 0.18 | 87 | 1020.6 |
| 20260507192505 | 48 | 309 | 0.0 | 3.0 | 0.00 | 0.18 | 0.18 | 88 | 1020.5 |
| 20260507192005 | 49 | 309 | 0.0 | 4.0 | 0.00 | 0.18 | 0.18 | 88 | 1020.4 |
| 20260507191508 | 49 | 309 | 2.0 | 4.0 | 0.00 | 0.18 | 0.18 | 89 | 1020.3 |
| 20260507191004 | 49 | 309 | 0.0 | 2.0 | 0.00 | 0.18 | 0.18 | 90 | 1020.2 |
| 20260507190504 | 49 | 247 | 0.0 | 1.0 | 0.00 | 0.18 | 0.18 | 91 | 1020.1 |
| 20260507190005 | 49 | 247 | 0.0 | 1.0 | 0.00 | 0.18 | 0.18 | 90 | 1020.1 |
| 20260507185502 | 49 | 247 | 0.0 | 0.0 | 0.00 | 0.18 | 0.18 | 89 | 1020.1 |
| 20260507185002 | 49 | 247 | 0.0 | 0.0 | 0.00 | 0.18 | 0.18 | 89 | 1020.0 |
| 20260507184505 | 49 | 247 | 0.0 | 0.0 | 0.00 | 0.18 | 0.18 | 88 | 1020.0 |
| 20260507184001 | 49 | 247 | 0.0 | 0.0 | 0.00 | 0.18 | 0.18 | 88 | 1020.0 |
| 20260507183500 | 49 | 247 | 0.0 | 0.0 | 0.00 | 0.18 | 0.18 | 87 | 1019.9 |
| 20260507183100 | 50 | 247 | 0.0 | 0.0 | 0.00 | 0.18 | 0.18 | 87 | 1019.8 |
| 20260507182559 | 50 | 247 | 0.0 | 0.0 | 0.00 | 0.18 | 0.18 | 87 | 1019.7 |
| 20260507182102 | 50 | 247 | 0.0 | 0.0 | 0.00 | 0.18 | 0.18 | 86 | 1019.7 |
| 20260507181559 | 50 | 247 | 0.0 | 0.0 | 0.00 | 0.18 | 0.18 | 85 | 1019.7 |
| 20260507181058 | 50 | 247 | 0.0 | 0.0 | 0.00 | 0.18 | 0.18 | 86 | 1019.6 |
| 20260507180602 | 50 | 247 | 0.0 | 0.0 | 0.00 | 0.18 | 0.18 | 87 | 1019.6 |
| 20260507180058 | 51 | 247 | 0.0 | 0.0 | 0.00 | 0.18 | 0.18 | 87 | 1019.6 |
| 20260507175557 | 51 | 247 | 0.0 | 0.0 | 0.01 | 0.18 | 0.18 | 87 | 1019.6 |
| 20260507175057 | 51 | 247 | 0.0 | 1.0 | 0.01 | 0.18 | 0.18 | 85 | 1019.5 |
| 20260507174556 | 51 | 247 | 0.0 | 2.0 | 0.01 | 0.18 | 0.18 | 85 | 1019.4 |
| 20260507174055 | 51 | 247 | 0.0 | 2.0 | 0.01 | 0.18 | 0.18 | 82 | 1019.3 |
| 20260507173555 | 51 | 247 | 0.0 | 2.0 | 0.01 | 0.18 | 0.18 | 86 | 1019.3 |
| 20260507173057 | 51 | 247 | 0.0 | 3.0 | 0.01 | 0.18 | 0.18 | 85 | 1019.3 |
| 20260507172554 | 51 | 247 | 0.0 | 3.0 | 0.01 | 0.18 | 0.18 | 85 | 1019.1 |
| 20260507172053 | 51 | 271 | 0.0 | 5.0 | 0.01 | 0.18 | 0.18 | 86 | 1019.1 |
| 20260507171556 | 51 | 269 | 2.0 | 8.0 | 0.01 | 0.18 | 0.18 | 88 | 1019.2 |
| 20260507171053 | 51 | 287 | 2.0 | 9.0 | 0.01 | 0.18 | 0.18 | 88 | 1019.2 |
| 20260507170552 | 52 | 322 | 2.0 | 9.0 | 0.01 | 0.18 | 0.18 | 87 | 1019.1 |
| 20260507170052 | 52 | 283 | 5.0 | 8.0 | 0.00 | 0.17 | 0.17 | 86 | 1018.9 |
| 20260507165550 | 53 | 263 | 3.0 | 5.0 | 0.00 | 0.17 | 0.17 | 82 | 1018.9 |
| 20260507165053 | 53 | 304 | 3.0 | 4.0 | 0.00 | 0.17 | 0.17 | 80 | 1018.8 |
| 20260507164550 | 53 | 79 | 0.0 | 0.0 | 0.00 | 0.17 | 0.17 | 78 | 1018.7 |
| 20260507164050 | 53 | 79 | 0.0 | 0.0 | 0.00 | 0.17 | 0.17 | 74 | 1018.7 |
| 20260507163551 | 53 | 79 | 0.0 | 0.0 | 0.00 | 0.17 | 0.17 | 74 | 1018.7 |
| 20260507163049 | 53 | 79 | 0.0 | 0.0 | 0.00 | 0.17 | 0.17 | 75 | 1018.7 |
| 20260507162549 | 53 | 79 | 0.0 | 0.0 | 0.00 | 0.17 | 0.17 | 77 | 1018.6 |
| 20260507162049 | 53 | 79 | 0.0 | 0.0 | 0.00 | 0.17 | 0.17 | 79 | 1018.5 |
| 20260507161548 | 53 | 79 | 0.0 | 0.0 | 0.00 | 0.17 | 0.17 | 77 | 1018.5 |
| 20260507161048 | 53 | 79 | 0.0 | 4.0 | 0.00 | 0.17 | 0.17 | 78 | 1018.4 |
| 20260507160548 | 53 | 79 | 0.0 | 4.0 | 0.00 | 0.17 | 0.17 | 79 | 1018.5 |
| 20260507160048 | 53 | 341 | 0.0 | 3.0 | 0.00 | 0.17 | 0.17 | 77 | 1018.4 |
| 20260507155547 | 53 | 4 | 0.0 | 3.0 | 0.00 | 0.17 | 0.17 | 76 | 1018.4 |
| 20260507155048 | 53 | 97 | 0.0 | 2.0 | 0.00 | 0.17 | 0.17 | 77 | 1018.5 |
| 20260507154548 | 53 | 93 | 0.0 | 0.0 | 0.00 | 0.17 | 0.17 | 79 | 1018.4 |
| 20260507154047 | 53 | 6 | 0.0 | 0.0 | 0.00 | 0.17 | 0.17 | 77 | 1018.4 |
| 20260507153546 | 53 | 314 | 0.0 | 2.0 | 0.00 | 0.17 | 0.17 | 78 | 1018.4 |
| 20260507153047 | 53 | 115 | 0.0 | 2.0 | 0.00 | 0.17 | 0.17 | 77 | 1018.4 |
| 20260507152549 | 53 | 115 | 0.0 | 0.0 | 0.00 | 0.17 | 0.17 | 77 | 1018.4 |
| 20260507152048 | 53 | 37 | 0.0 | 2.0 | 0.00 | 0.17 | 0.17 | 79 | 1018.4 |
| 20260507151547 | 53 | 37 | 0.0 | 3.0 | 0.00 | 0.17 | 0.17 | 83 | 1018.4 |
| 20260507151046 | 53 | 112 | 0.0 | 3.0 | 0.00 | 0.17 | 0.17 | 81 | 1018.4 |
| 20260507150546 | 53 | 112 | 1.0 | 4.0 | 0.00 | 0.17 | 0.17 | 81 | 1018.3 |
| 20260507150046 | 53 | 99 | 0.0 | 4.0 | 0.00 | 0.17 | 0.17 | 80 | 1018.4 |
| 20260507145546 | 53 | 99 | 0.0 | 2.0 | 0.00 | 0.17 | 0.17 | 81 | 1018.3 |
| 20260507145046 | 54 | 140 | 0.0 | 1.0 | 0.00 | 0.17 | 0.17 | 80 | 1018.3 |
| 20260507144546 | 54 | 140 | 0.0 | 1.0 | 0.00 | 0.17 | 0.17 | 81 | 1018.3 |
| 20260507144049 | 54 | 140 | 0.0 | 2.0 | 0.00 | 0.17 | 0.17 | 79 | 1018.3 |
| 20260507143544 | 54 | 140 | 0.0 | 2.0 | 0.00 | 0.17 | 0.17 | 81 | 1018.2 |
| 20260507143045 | 54 | 140 | 0.0 | 2.0 | 0.00 | 0.17 | 0.17 | 79 | 1018.2 |
| 20260507142546 | 54 | 140 | 0.0 | 2.0 | 0.00 | 0.17 | 0.17 | 82 | 1018.2 |
| 20260507142044 | 54 | 141 | 0.0 | 0.0 | 0.01 | 0.17 | 0.17 | 81 | 1018.2 |
| 20260507141545 | 54 | 141 | 0.0 | 1.0 | 0.02 | 0.17 | 0.17 | 81 | 1018.2 |
| 20260507141045 | 54 | 141 | 0.0 | 0.0 | 0.02 | 0.17 | 0.17 | 80 | 1018.1 |
| 20260507140544 | 53 | 141 | 0.0 | 3.0 | 0.03 | 0.17 | 0.17 | 80 | 1018.1 |
| 20260507140059 | 53 | 141 | 1.0 | 4.0 | 0.04 | 0.17 | 0.17 | 81 | 1018.1 |
| 20260507135544 | 53 | 83 | 1.0 | 4.0 | 0.04 | 0.17 | 0.17 | 78 | 1018.1 |
| 20260507135043 | 53 | 135 | 1.0 | 5.0 | 0.05 | 0.17 | 0.17 | 86 | 1018.2 |
| 20260507134543 | 52 | 195 | 1.0 | 5.0 | 0.06 | 0.17 | 0.17 | 84 | 1018.2 |
| 20260507134042 | 51 | 160 | 0.0 | 2.0 | 0.06 | 0.17 | 0.17 | 87 | 1018.3 |
| 20260507133542 | 50 | 160 | 0.0 | 1.0 | 0.06 | 0.17 | 0.17 | 89 | 1018.3 |
| 20260507133042 | 49 | 160 | 0.0 | 0.0 | 0.06 | 0.17 | 0.17 | 90 | 1018.4 |
| 20260507132541 | 49 | 160 | 0.0 | 2.0 | 0.06 | 0.17 | 0.17 | 89 | 1018.5 |
| 20260507132041 | 49 | 160 | 0.0 | 4.0 | 0.06 | 0.17 | 0.17 | 88 | 1018.6 |
| 20260507131545 | 49 | 160 | 0.0 | 4.0 | 0.05 | 0.16 | 0.16 | 87 | 1018.6 |
| 20260507131042 | 49 | 156 | 2.0 | 5.0 | 0.04 | 0.15 | 0.15 | 85 | 1018.6 |
| 20260507130541 | 50 | 166 | 0.0 | 3.0 | 0.03 | 0.14 | 0.14 | 86 | 1018.7 |
| 20260507130039 | 50 | 166 | 0.0 | 2.0 | 0.02 | 0.13 | 0.13 | 83 | 1018.5 |
| 20260507125539 | 50 | 166 | 0.0 | 3.0 | 0.02 | 0.13 | 0.13 | 82 | 1018.5 |
| 20260507125043 | 51 | 219 | 0.0 | 11.0 | 0.01 | 0.12 | 0.12 | 82 | 1018.4 |
| 20260507124538 | 51 | 288 | 2.0 | 11.0 | 0.01 | 0.12 | 0.12 | 81 | 1018.3 |
| 20260507124037 | 51 | 314 | 6.0 | 12.0 | 0.00 | 0.11 | 0.11 | 81 | 1018.1 |
| 20260507123536 | 52 | 318 | 6.0 | 14.0 | 0.00 | 0.11 | 0.11 | 79 | 1017.8 |
| 20260507123035 | 52 | 304 | 8.0 | 14.0 | 0.00 | 0.11 | 0.11 | 77 | 1017.8 |
| 20260507122534 | 53 | 270 | 7.0 | 14.0 | 0.00 | 0.11 | 0.11 | 71 | 1017.6 |
| 20260507122035 | 54 | 272 | 8.0 | 14.0 | 0.00 | 0.11 | 0.11 | 70 | 1017.6 |
| 20260507121535 | 54 | 265 | 7.0 | 13.0 | 0.00 | 0.11 | 0.11 | 70 | 1017.4 |
| 20260507121035 | 55 | 293 | 3.0 | 9.0 | 0.00 | 0.11 | 0.11 | 71 | 1017.4 |
| 20260507120534 | 55 | 283 | 2.0 | 6.0 | 0.00 | 0.11 | 0.11 | 70 | 1017.3 |
| 20260507120034 | 55 | 285 | 4.0 | 6.0 | 0.00 | 0.11 | 0.11 | 69 | 1017.2 |
| 20260507115534 | 56 | 297 | 3.0 | 5.0 | 0.00 | 0.11 | 0.11 | 68 | 1017.2 |
| 20260507115033 | 56 | 262 | 2.0 | 8.0 | 0.00 | 0.11 | 0.11 | 68 | 1017.1 |
| 20260507114534 | 56 | 284 | 3.0 | 8.0 | 0.00 | 0.11 | 0.11 | 70 | 1017.0 |
| 20260507114036 | 57 | 314 | 3.0 | 5.0 | 0.00 | 0.11 | 0.11 | 65 | 1017.0 |
| 20260507113534 | 57 | 266 | 0.0 | 2.0 | 0.00 | 0.11 | 0.11 | 67 | 1017.1 |
| 20260507113039 | 57 | 133 | 0.0 | 3.0 | 0.00 | 0.11 | 0.11 | 63 | 1017.1 |
| 20260507112536 | 56 | 133 | 0.0 | 3.0 | 0.00 | 0.11 | 0.11 | 67 | 1017.2 |
| 20260507112036 | 56 | 95 | 0.0 | 2.0 | 0.00 | 0.11 | 0.11 | 68 | 1017.2 |
| 20260507111533 | 56 | 353 | 0.0 | 2.0 | 0.00 | 0.11 | 0.11 | 67 | 1017.2 |
| 20260507111031 | 56 | 353 | 0.0 | 3.0 | 0.00 | 0.11 | 0.11 | 67 | 1017.2 |
| 20260507110532 | 56 | 353 | 0.0 | 4.0 | 0.00 | 0.11 | 0.11 | 64 | 1017.2 |
| 20260507110031 | 56 | 357 | 1.0 | 4.0 | 0.00 | 0.11 | 0.11 | 67 | 1017.2 |
| 20260507105528 | 56 | 114 | 0.0 | 4.0 | 0.00 | 0.11 | 0.11 | 67 | 1017.3 |
| 20260507105028 | 56 | 129 | 2.0 | 4.0 | 0.00 | 0.11 | 0.11 | 65 | 1017.3 |
| 20260507104528 | 55 | 141 | 0.0 | 4.0 | 0.00 | 0.11 | 0.11 | 69 | 1017.4 |
| 20260507104026 | 55 | 297 | 1.0 | 3.0 | 0.00 | 0.11 | 0.11 | 66 | 1017.4 |
| 20260507103524 | 54 | 88 | 0.0 | 2.0 | 0.00 | 0.11 | 0.11 | 72 | 1017.4 |
| 20260507103024 | 54 | 137 | 0.0 | 3.0 | 0.00 | 0.11 | 0.11 | 69 | 1017.5 |
| 20260507102522 | 53 | 2 | 0.0 | 3.0 | 0.00 | 0.11 | 0.11 | 77 | 1017.5 |
| 20260507102021 | 53 | 358 | 1.0 | 3.0 | 0.00 | 0.11 | 0.11 | 76 | 1017.6 |
| 20260507101535 | 52 | 141 | 0.0 | 2.0 | 0.00 | 0.11 | 0.11 | 79 | 1017.7 |
| 20260507101019 | 52 | 141 | 0.0 | 2.0 | 0.00 | 0.11 | 0.11 | 78 | 1017.7 |
| 20260507100519 | 52 | 141 | 0.0 | 2.0 | 0.00 | 0.11 | 0.11 | 76 | 1017.7 |
| 20260507100028 | 52 | 141 | 0.0 | 7.0 | 0.00 | 0.11 | 0.11 | 77 | 1017.7 |
| 20260507095520 | 52 | 141 | 2.0 | 7.0 | 0.01 | 0.11 | 0.11 | 75 | 1017.6 |
| 20260507095020 | 52 | 147 | 2.0 | 4.0 | 0.02 | 0.11 | 0.11 | 76 | 1017.7 |
| 20260507094520 | 52 | 120 | 0.0 | 2.0 | 0.05 | 0.11 | 0.11 | 80 | 1017.7 |
| 20260507094018 | 51 | 165 | 0.0 | 1.0 | 0.07 | 0.11 | 0.11 | 84 | 1017.7 |
| 20260507093517 | 51 | 165 | 0.0 | 3.0 | 0.09 | 0.11 | 0.11 | 81 | 1017.8 |
| 20260507093025 | 51 | 165 | 1.0 | 3.0 | 0.09 | 0.11 | 0.11 | 77 | 1017.8 |
| 20260507092523 | 51 | 281 | 1.0 | 6.0 | 0.11 | 0.11 | 0.11 | 79 | 1017.7 |
| 20260507092016 | 51 | 299 | 3.0 | 8.0 | 0.11 | 0.11 | 0.11 | 81 | 1017.6 |
| 20260507091536 | 51 | 304 | 4.0 | 9.0 | 0.11 | 0.11 | 0.11 | 81 | 1017.6 |
| 20260507091016 | 51 | 309 | 5.0 | 9.0 | 0.11 | 0.11 | 0.11 | 84 | 1017.6 |
| 20260507090515 | 50 | 314 | 3.0 | 8.0 | 0.11 | 0.11 | 0.11 | 86 | 1017.7 |
| 20260507090014 | 49 | 304 | 3.0 | 6.0 | 0.11 | 0.11 | 0.11 | 88 | 1017.6 |
| 20260507085514 | 48 | 318 | 3.0 | 6.0 | 0.10 | 0.10 | 0.10 | 87 | 1017.5 |
| 20260507085012 | 48 | 309 | 2.0 | 8.0 | 0.08 | 0.08 | 0.08 | 85 | 1017.5 |
| 20260507084511 | 49 | 309 | 4.0 | 8.0 | 0.06 | 0.06 | 0.06 | 82 | 1017.5 |
| 20260507084014 | 49 | 309 | 0.0 | 6.0 | 0.04 | 0.04 | 0.04 | 81 | 1017.5 |
| 20260507083509 | 50 | 272 | 2.0 | 9.0 | 0.02 | 0.02 | 0.02 | 79 | 1017.4 |
| 20260507083011 | 50 | 272 | 4.0 | 10.0 | 0.01 | 0.01 | 0.01 | 76 | 1017.2 |
| 20260507082508 | 50 | 288 | 4.0 | 9.0 | 0.00 | 0.00 | 0.00 | 75 | 1017.1 |
| 20260507082006 | 50 | 295 | 3.0 | 11.0 | 0.00 | 0.00 | 0.00 | 73 | 1016.9 |
| 20260507081506 | 50 | 285 | 5.0 | 11.0 | 0.00 | 0.00 | 0.00 | 73 | 1016.8 |
| 20260507081006 | 50 | 262 | 4.0 | 11.0 | 0.00 | 0.00 | 0.00 | 75 | 1016.7 |
| 20260507080605 | 51 | 260 | 4.0 | 11.0 | 0.00 | 0.00 | 0.00 | 75 | 1016.7 |
| 20260507080007 | 51 | 295 | 5.0 | 10.0 | 0.00 | 0.00 | 0.00 | 76 | 1016.6 |
| 20260507075504 | 51 | 290 | 4.0 | 10.0 | 0.00 | 0.00 | 0.00 | 76 | 1016.6 |
| 20260507075005 | 51 | 277 | 4.0 | 13.0 | 0.00 | 0.00 | 0.00 | 75 | 1016.5 |
| 20260507074508 | 51 | 314 | 7.0 | 13.0 | 0.00 | 0.00 | 0.00 | 73 | 1016.4 |
| 20260507074002 | 51 | 274 | 5.0 | 11.0 | 0.00 | 0.00 | 0.00 | 74 | 1016.5 |
| 20260507073502 | 51 | 314 | 5.0 | 9.0 | 0.00 | 0.00 | 0.00 | 72 | 1016.5 |
| 20260507073003 | 52 | 264 | 3.0 | 9.0 | 0.00 | 0.00 | 0.00 | 73 | 1016.4 |
| 20260507072501 | 52 | 318 | 0.0 | 9.0 | 0.00 | 0.00 | 0.00 | 73 | 1016.4 |
| 20260507072000 | 51 | 324 | 0.0 | 0.0 | 0.00 | 0.00 | 0.00 | 78 | 1016.4 |
| 20260507071502 | 51 | 245 | 0.0 | 2.0 | 0.00 | 0.00 | 0.00 | 80 | 1016.3 |
| 20260507071101 | 51 | 147 | 0.0 | 2.0 | 0.00 | 0.00 | 0.00 | 82 | 1016.3 |
| 20260507070559 | 50 | 147 | 0.0 | 0.0 | 0.00 | 0.00 | 0.00 | 82 | 1016.4 |
| 20260507070138 | 50 | 147 | 0.0 | 0.0 | 0.00 | 0.00 | 0.00 | 82 | 1016.4 |
| 20260507065556 | 49 | 147 | 0.0 | 0.0 | 0.00 | 0.00 | 0.00 | 83 | 1016.3 |
| 20260507065055 | 49 | 147 | 0.0 | 0.0 | 0.00 | 0.00 | 0.00 | 83 | 1016.4 |
| 20260507064555 | 49 | 147 | 0.0 | 0.0 | 0.00 | 0.00 | 0.00 | 83 | 1016.4 |
| 20260507064056 | 49 | 147 | 0.0 | 2.0 | 0.00 | 0.00 | 0.00 | 84 | 1016.5 |
| 20260507063554 | 49 | 147 | 0.0 | 2.0 | 0.00 | 0.00 | 0.00 | 84 | 1016.4 |
| 20260507063055 | 49 | 147 | 0.0 | 0.0 | 0.00 | 0.00 | 0.00 | 84 | 1016.3 |
| 20260507062551 | 49 | 147 | 0.0 | 0.0 | 0.00 | 0.00 | 0.00 | 83 | 1016.3 |
| 20260507062052 | 49 | 147 | 0.0 | 0.0 | 0.00 | 0.00 | 0.00 | 83 | 1016.2 |
| 20260507061549 | 49 | 147 | 0.0 | 0.0 | 0.00 | 0.00 | 0.00 | 83 | 1016.2 |
| 20260507061048 | 49 | 147 | 0.0 | 0.0 | 0.00 | 0.00 | 0.00 | 83 | 1016.2 |